{"data":{"norad_id":67088,"epoch":"2026-09-20T08:47:11.510880Z","epoch_age_seconds":90589,"freshness":"FRESH","line1":"1 67088U 25298P   26263.36610545  .00003242  00000+0  27933-3 0  9991","line2":"2 67088  69.9992 243.7778 0003823 267.8306  92.2415 14.98338522 42375","mean_motion":14.98338522,"eccentricity":0.0003823,"inclination_deg":69.9992,"raan_deg":243.7778,"arg_perigee_deg":267.8306,"mean_anomaly_deg":92.2415,"bstar":0.00027933,"rev_number":4237,"period_min":96.106452504329,"perigee_km":569.37248882003,"apogee_km":574.68658615459,"semimajor_km":6950.1665374873,"source":"CELESTRAK","updated_at":"2026-09-21T09:00:36.099978Z"}}